Погода в Первомайском

Украина / Николаевская область     47°02′35″N   32°26′09″E
темп.,
°C
ветер,
м/с
пор.,
м/с
влажн.,
%
обл.,
%
осадки,
мм/ч
давл.,
гПа
погр.,
м
17 апреля, сб
сб1700:00+6юз4108491 0.0 1018525
03:00+5з238870 0.1 101967
06:00+4зюз33885 0.0 102049
09:00+8з23655 0.0 1021472
12:00+13ююз354916 0.0 10211661
15:00+14юз65355 0.0 10201846
18:00+12юз443961 0.0 10201103
21:00+7юз335712 0.0 102032
18 апреля, вс
вс1800:00+7юз1159100 0.0 102010
03:00+6св116278 0.0 102010
06:00+6в226281 0.0 101915
09:00+10в3358100 0.0 1019411
12:00+14вюв444456 0.0 10181360
15:00+16вюв343430 0.0 10161761
18:00+16в334399 0.0 10151767
21:00+10ююз3680100 0.3 1017274
19 апреля, пн
пн1900:00+10сз1191100 1.2 101681
03:00+10св1191100 1.3 101564
06:00+10св1190100 0.0 101517
09:00+11всв3579100 0.0 1015531
12:00+14в446190 0.0 10141161
15:00+15вюв3457100 0.0 10131341
18:00+14в3567100 0.1 1011819
21:00+12всв3778100 0.1 1009249
20 апреля, вт
вт2000:00+11в4890100 1.1 1007468
03:00+11всв71294100 2.8 1003610
06:00+10всв71296100 4.1 999634
09:00+11вюв5998100 10.4 996507
12:00+11ю5893100 1.8 995662
15:00+13ююз4472100 2.0 994954
18:00+9сз101588100 0.9 9991081
21:00+10з91485100 2.4 10051062
21 апреля, ср
ср2100:00+9зюз71282100 0.3 1008592
03:00+8зюз51185100 0.3 1010369
06:00+7зюз4989100 0.0 1012267
09:00+11з577310 0.0 1014615
12:00+14з575319 0.0 10161582
15:00+15зюз565290 0.3 10161581
18:00+13зюз456492 0.9 1018707
21:00+9юз348146 1.3 101960